User: anonymous   Login
Location: Caltech
(34.1382°N, 118.1253°W)
Time: 21:01:01
(UTC-07:00)
Language:

Cosmos 1975 - Orbit

View from above orbital plane
View from above orbital plane
View from above satellite
View from above satellite

Ground track
Ground track

The orbit data is extracted from the following two-line orbital elements,

1 19573U 88093A   17231.73359551  .00000102  00000-0  52162-5 0  9999
2 19573  82.5193 284.0001 0016234  83.9531 276.3544 15.04210596569368
Epoch (UTC): 19 August 2017 17:36:22
Eccentricity: 0.0016234
inclination: 82.5193°
perigee height: 542 km
apogee height: 565 km
right ascension of ascending node: 284.0001°
argument of perigee: 83.9531°
revolutions per day: 15.04210596
mean anomaly at epoch: 276.3544°
orbit number at epoch: 56936

The dashed part of the orbit path shows where the satellite is in the earth's shadow,  

DLR